全部
Temora Airport (Temora, New South Wales) TEM 天气
|
Temora, New South Wales (YTEM)
晴天
多风 |
|
20 °C |
TEM终端机场天气预报
| Here is the undecoded forecast: 2026/05/02 18:57 YTEM 021857Z 0220/0308 03010KT CAVOK FM022300 03015G25KT CAVOK FM030300 02015G25KT 9999 -SHRA NSC PROB30 TEMPO 0303/0308 VRB30G40KT 4000 TSRA BKN012 SCT060CB RMK T 15 21 24 24 Q 1018 1019 1017 1015 |
TEM近期METAR历史数据
| Date | Time (AEST) | Flight Rules | Wind Dir. | Speed | Type | Height AGL (ft) | Visibility | Temp (°C) | Temp (°F) | Dew Point (°C) | Dew Point (°F) | Rel. Humid. | Pressure | Density Altitude | Remarks |
|---|---|---|---|---|---|---|---|---|---|---|---|---|---|---|---|
| 03-五月 | 10:00 | n/a | 10° | 17 kt | Missing | 20° | 68° | 12° | 53° | 60% | 1019 mb | 1,350 ft | |||
| 03-五月 | 09:00 | n/a | 10° | 11 kt | Missing | 19° | 66° | 12° | 53° | 64% | 1020 mb | 1,200 ft | |||
| 03-五月 | 08:00 | n/a | 20° | 11 kt | Missing | 18° | 64° | 12° | 53° | 68% | 1019 mb | 1,110 ft | |||
| 03-五月 | 07:00 | n/a | 10° | 9 kt | Missing | 17° | 62° | 12° | 53° | 72% | 1019 mb | 990 ft | |||
| 03-五月 | 06:00 | n/a | 40° | 7 kt | Missing | 17° | 62° | 13° | 55° | 77% | 1018 mb | 1,019 ft | |||
| 03-五月 | 05:00 | n/a | 50° | 6 kt | Missing | 18° | 64° | 13° | 55° | 73% | 1018 mb | 1,139 ft | |||
| 03-五月 | 04:00 | n/a | 70° | 7 kt | Missing | 17° | 62° | 13° | 55° | 77% | 1018 mb | 1,019 ft | |||
| 03-五月 | 03:00 | n/a | 50° | 2 kt | Missing | 17° | 62° | 14° | 57° | 82% | 1018 mb | 1,019 ft | |||
| 03-五月 | 02:00 | n/a | 80° | 5 kt | Missing | 17° | 62° | 14° | 57° | 82% | 1019 mb | 990 ft | |||
| 03-五月 | 01:00 | n/a | 40° | 7 kt | Missing | 17° | 62° | 14° | 57° | 82% | 1019 mb | 990 ft | |||
| 03-五月 | 00:00 | n/a | 40° | 7 kt | Missing | 19° | 66° | 13° | 55° | 68% | 1019 mb | 1,230 ft | |||
| 02-五月 | 23:00 | n/a | 60° | 7 kt | Missing | 19° | 66° | 13° | 55° | 68% | 1020 mb | 1,200 ft | |||
| 02-五月 | 22:00 | n/a | Calm | Missing | 17° | 62° | 15° | 59° | 88% | 1020 mb | 960 ft | ||||
| 02-五月 | 21:00 | n/a | 340° | 9 kt | Missing | 19° | 66° | 14° | 57° | 73% | 1020 mb | 1,200 ft | |||
| 02-五月 | 20:00 | n/a | 50° | 6 kt | Missing | 21° | 69° | 12° | 53° | 56% | 1020 mb | 1,440 ft | |||
| 02-五月 | 19:00 | n/a | 30° | 3 kt | Missing | 19° | 66° | 12° | 53° | 64% | 1020 mb | 1,200 ft | |||
| 02-五月 | 18:00 | n/a | 30° | 6 kt | Missing | 21° | 69° | 11° | 51° | 53% | 1019 mb | 1,470 ft | |||
| 02-五月 | 17:00 | n/a | 10° | 11 kt | Missing | 23° | 73° | 11° | 51° | 47% | 1019 mb | 1,710 ft | |||
| 02-五月 | 16:00 | n/a | 30° | 13 kt | Missing | 24° | 75° | 9° | 48° | 38% | 1019 mb | 1,830 ft | |||
| 02-五月 | 15:00 | n/a | 10° | 14 kt | Missing | 25° | 77° | 9° | 48° | 36% | 1019 mb | 1,950 ft | |||
| 02-五月 | 14:00 | n/a | 20° | 13 kt | Missing | 25° | 77° | 10° | 50° | 39% | 1020 mb | 1,920 ft | |||
| 02-五月 | 13:00 | n/a | 360° | 12 kt | Missing | 24° | 75° | 11° | 51° | 44% | 1021 mb | 1,771 ft | |||
| 02-五月 | 12:00 | n/a | 10° | 14 kt | Missing | 24° | 75° | 11° | 51° | 44% | 1022 mb | 1,741 ft | |||
| 02-五月 | 11:00 | n/a | 10° | 13 kt | Missing | 22° | 71° | 12° | 53° | 53% | 1023 mb | 1,472 ft |
登录
| 您的浏览器不支持. 升级您的浏览器 |
